STARLINK-35210, 65903

Orbit data source: Space-Track

STARLINK-35210, 65903 is a payload satellite owned by SpaceX/Seattle (US) in LEO that was launched on Tue, 07 Oct 2025 UTC via an FALCON 9 launch vehicle from the Air Force Eastern Test Range (AFETR). Payload-class satellites include a variety of spacecraft equipped with specific instruments for various scientific and technological missions. These include communications satellites like Starlink; space stations such as the ISS; scientific satellites like the Hubble; Earth observation satellites from companies like Planet Labs, Umbra, and HawkEye 360; GPS; miniature CubeSats for education and research; and military/defense satellites.

Loading next visibility...
Identifier
65903, 2025-224X
Orbit
LEO
Country
Flag of USUS
Related business
Manufacturer
SpaceX/Seattle
Mission
Operational Commercial Communications
Bus & Motor
STARLINK V2MO, Unknown motor
Mass
575 kg wet, ~530 kg dry
Launch date (UTC)
2025-10-07 (5 months ago)
Launch vehicle
FALCON 9
Launch site
Air Force Eastern Test Range (AFETR)
Object type
Payload
Rocket body
Debris
Shape & HBR
Box + 2 Pan, 17.7 m
Radar Cross Section
36.964 m²

Expand to show TLE details & history
Last TLE update: 11 hours ago

TLE from 11 hours ago
0 STARLINK-35210
1 65903U 25224X   26062.12173235  .00026857  00000-0  91641-3 0  9990
2 65903  53.1605  42.2109 0001540  71.4945 288.6223 15.30172416 23841
Epoch: 2026-03-03T02:55Z
TLE epoch observation values (Epoch: 2026-03-03T02:55:17.675Z)
Latitude
Longitude
-162.51808°
Altitude
475.86 km
Speed
7.629 km/s
True Right ascension
02h 48m 50s
True Declination
0° 00' 00"
Sunlit
Object was in daylight at epoch
Visualization orbit readout
Latitude
Unknown
Longitude
Unknown
Altitude
Unknown
Speed
Unknown
Apparent Right ascension
Unknown
Apparent Declination
Unknown
Sunlit
N/A
Visualization observer readout
Local Sidereal Time
17:48:58
Azimuth
Unknown
Elevation
Unknown
Doppler factor
Unknown
Orbital elements
Apogee altitude
476.609 km
Perigee altitude
474.498 km
Semi-major axis
6,853.691 km
Eccentricity
0.00015
Inclination
53.1605°
RAAN
42.2109°
Arg. of periapsis
71.4945°
True anomaly
288.60558°
Mean anomaly
288.6223°
Eccentric anomaly
288.61394°
Mean motion
3.82522 °/min
Orbital period
94.11 mins
BSTAR
0.00091641
Loading maneuver chart data...
Computing Atmospheric mass density...
Loading historical data...
Loading historical data...
Loading historical data...
Loading historical data...
Loading historical data...
Loading historical data...
Loading historical data...

Documentation

Showing up to 5 results
|